星链-34897 (STARLINK-34897)

导读 | 豆包AI

STARLINK-34897是美国SpaceX公司星链互联网星座计划中的一颗卫星,于2025年8月14日发射升空。作为星链低轨卫星星座的组成部分,它旨在为全球提供高速低延迟互联网覆盖,补充星链网络的服务能力,尤其服务偏远地区与网络基础设施薄弱区域的互联网接入需求,进一步完善星座全球覆盖布局。

基本信息
目录编号:
65212
目录名称:
STARLINK-34897
国际标识:
2025-176Q
轨道中心:
EARTH
卫星名称:
星链-34897
卫星全名:
星链-34897 (STARLINK-34897)
卫星状态:
在轨 (已飞行258 天)
发射日期:
2025-08-14 UTC
国别 :
美国 (US)
星等 :
--
轨道信息
数据来源 国际轨道数据
星历时间: 2026-04-29T11:27:44+0800
6小时前
查看轨道信息
半长轴: 6843.361km
偏心率: 0.0001263
轨道倾角: 53.159°
近地点辐角 71.703°
升交点赤经 278.485°
平近点角 288.411°
近地点: 464.359km
远地点: 466.089km
周期: 93.900分钟
每日圈数: 15.335523
详细信息
固有亮度:
5
最大亮度:
2.5
卫星平台:
Starlink V1.0
覆盖范围:
全球
运营商:
太空探索技术公司
运营商所在国:
美国
制造商(研发单位):
太空探索技术公司
制造商所在国:
美国
使用方式:
暂无
卫星简介
Starlink 计划是 SpaceX 推出的全球卫星互联网项目,通过发射低轨道卫星,为全球尤其是偏远地区提供高速、低延迟的互联网服务。自 2019 年起,Starlink 已部署数千颗卫星,旨在缩小全球数字鸿沟,推动互联网普及。该项目还为军事、航空等行业提供通信支持,带来广泛经济效益。
2D轨道图
3D轨道图
轨道高度分析图
轨道倾角分析图
轨道综合分析图
查看轨道综合分析图